User: anonymous   Login
Location: Chandolas
(44.4033°N, 4.2533°E)
Time: 00:04:48
(UTC+00:00)
Language:

USA 234 - Orbit

View from above orbital plane
View from above orbital plane
View from above satellite
View from above satellite

Ground track
Ground track

The orbit data is extracted from the following two-line orbital elements,

1 38109U 12014A   20027.09969089 0.00000000  00000-0  00000-0 0    03
2 38109 123.0121  75.5347 0004726  33.6336 326.3349 13.41430737    00
Epoch (UTC): 27 January 2020 02:23:33
Eccentricity: 0.0004726
inclination: 123.0121°
perigee height: 1100 km
apogee height: 1107 km
right ascension of ascending node: 75.5347°
argument of perigee: 33.6336°
revolutions per day: 13.41430737
mean anomaly at epoch: 326.3349°
orbit number at epoch: 0

The dashed part of the orbit path shows where the satellite is in the earth's shadow,  

DLR